RH
58 60 62 60 59 62 56 58 60 60 60 60 55 55 54 55 59 68 67 57 65 67 62 60 63 68 48 39 37 39 41 40 44 38 33 39 57 55 51 52 52 54 44
54 59 60 61 60 58 59 56 59 64 65 64 64 61 58 54 61 64 61 52 57 58 58 66 62 48 74 72 51 66 52 54 47 70 57 46 60 57 59 64 51 40 46
51 50 56 60 60 61 61 60 58 64 65 62 65 66 63 57 58 60 62 59 52 54 57 61 61 63 71 58 62 54 46 50 53 53 51 40 40 40 48 58 60 55 41
39 44 56 63 63 58 60 64 62 63 67 67 67 67 64 60 56 53 56 62 60 52 54 56 56 59 65 69 66 72 67 63 57 50 47 44 40 48 43 42 43 38 39
44 44 52 62 64 64 63 64 64 64 64 68 68 65 62 56 45 58 55 56 63 60 56 53 54 59 70 72 53 65 72 60 48 45 42 38 36 37 52 43 45 42 48
47 47 53 61 66 66 66 65 66 66 67 69 68 66 64 46 58 71 62 53 56 60 62 61 60 70 72 81 84 86 83 80 81 59 50 51 69 57 48 48 51 54 62
50 51 54 62 68 69 66 68 70 71 68 70 70 68 67 65 72 74 74 51 53 59 63 63 54 34 65 57 82 86 87 90 92 81 82 77 77 73 74 80 77 81 75
53 55 56 61 66 69 69 71 73 69 71 72 71 70 68 62 79 81 80 58 58 60 59 61 65 62 59 60 58 59 60 62 74 71 77 77 75 75 78 72 85 85 75
54 56 57 58 66 69 72 72 71 71 70 70 69 73 73 69 84 86 83 54 55 65 63 64 64 66 74 83 66 67 66 61 53 76 77 77 79 83 81 70 78 81 72
54 55 58 59 65 69 71 73 71 69 66 54 60 67 74 72 90 88 83 50 58 49 62 70 81 72 83 89 74 71 74 69 63 60 61 78 91 82 93 85 81 86 92
47 52 59 63 68 69 72 72 72 71 63 70 66 66 68 71 74 92 93 66 48 44 42 38 39 79 85 87 93 74 76 75 73 68 62 56 69 69 78 90 87 91 94
54 55 61 67 57 55 73 73 73 76 77 75 75 64 53 67 91 95 95 91 77 56 48 30 36 71 86 89 87 82 90 91 63 61 58 57 63 66 59 77 84 78 76
60 63 65 66 63 60 72 76 67 74 59 64 55 55 46 40 54 92 96 96 94 73 50 52 93 95 91 92 98 93 97 68 67 65 64 67 63 60 86 89 84 85 84
66 66 64 66 69 64 56 58 56 52 56 47 49 46 43 39 37 41 64 76 93 83 80 66 67 85 98 87 77 83 70 65 63 64 70 64 60 85 81 81 91 88 79
66 58 62 57 65 63 55 49 50 51 49 45 38 38 39 40 38 48 53 57 61 71 73 64 60 58 60 59 59 60 65 74 73 66 69 77 71 84 83 89 96 85 74
79 69 52 48 54 52 50 57 97 87 100 100 100 75 40 84 99 98 100 100 100 97 71 60 57 56 55 54 68 76 65 73 69 74 75 80 86 91 92 89 84 73 62
76 79 54 55 46 48 47 48 53 78 100 100 100 100 100 99 100 100 100 100 100 95 63 55 54 50 55 71 70 78 77 77 78 78 82 82 88 90 96 86 79 73 58
78 85 71 57 47 42 41 44 42 53 56 53 88 85 99 100 100 100 100 99 69 78 61 56 54 61 76 71 59 54 56 55 80 76 77 81 87 89 90 82 76 69 56
90 84 61 70 68 80 64 51 47 62 53 48 56 87 96 100 100 100 100 76 61 54 49 56 54 53 58 61 59 56 55 58 69 75 80 83 86 84 82 78 74 72 66
91 87 90 91 80 83 57 42 51 42 51 55 46 62 78 82 73 67 73 72 67 57 46 41 40 43 46 49 52 61 68 79 81 81 86 86 87 85 88 82 63 54 57
92 89 93 67 71 73 51 73 40 54 53 57 74 69 100 69 54 40 47 58 60 57 54 48 45 42 59 62 58 63 82 72 66 71 80 89 86 87 84 72 53 51 49
45 42 53 67 67 62 61 76 49 50 50 42 46 55 100 38 46 41 36 36 41 50 47 52 49 48 54 73 70 67 71 62 64 72 80 83 81 77 70 61 51 48 51
46 48 46 42 39 46 44 36 26 25 24 24 24 26 36 34 36 32 35 39 42 43 43 56 65 56 54 52 52 57 63 65 68 67 75 76 72 69 64 61 48 47 49
58 60 58 53 53 53 41 35 27 36 26 22 25 25 34 37 37 45 55 68 66 69 70 70 58 55 58 56 54 54 57 57 55 55 57 55 54 55 53 57 51 55 64
76 76 78 78 68 66 61 57 57 56 53 55 58 60 61 58 59 62 62 62 62 68 66 62 60 62 65 64 62 59 84 96 82 92 52 52 55 57 54 50 58 68 69
77 80 84 85 88 87 89 88 87 84 82 78 83 83 83 83 80 78 75 74 72 73 73 71 67 67 60 52 66 85 94 96 81 100 67 52 56 56 58 69 71 69 66
Wind_Speed
21 20 19 18 19 17 14 13 12 9 8 10 9 10 10 10 10 9 9 7 10 9 8 6 7 7 8 7 6 6 7 7 8 8 7 7 6 5 8 8 8 9 11
21 20 20 19 19 18 17 16 14 13 11 10 11 11 11 11 10 11 12 10 10 9 10 9 10 9 10 8 8 8 8 7 8 9 9 9 10 9 8 8 8 10 10
22 23 20 20 19 19 18 17 16 15 14 14 13 12 12 12 11 12 12 12 11 11 11 10 11 10 9 10 7 8 8 8 9 10 10 8 8 8 9 9 8 10 10
23 23 21 21 20 19 17 17 17 15 15 14 14 13 13 13 13 13 13 12 11 12 11 11 11 11 10 9 9 9 9 10 10 10 10 10 9 7 7 8 7 8 10
20 21 21 20 19 18 19 18 17 16 15 15 14 14 14 14 13 14 13 12 12 12 11 11 12 12 10 8 9 9 9 10 10 10 9 9 9 9 10 9 10 10 10
20 21 19 19 19 20 19 18 17 16 16 16 15 15 15 14 16 15 15 12 12 12 12 12 12 10 10 12 12 13 12 10 10 11 11 11 10 10 10 10 11 11 11
17 18 18 18 19 19 19 18 18 17 16 16 16 15 16 16 12 15 17 13 12 12 12 11 11 12 13 14 15 17 16 15 16 13 14 13 13 10 10 10 10 9 10
19 18 18 19 19 18 18 18 17 16 17 16 16 16 15 14 12 13 14 14 13 14 12 12 13 14 13 11 11 12 13 13 13 12 14 13 12 10 9 10 9 10 9
19 20 20 19 19 19 19 18 16 15 15 15 15 16 16 15 15 16 14 15 14 15 13 14 15 15 14 13 14 15 15 14 12 12 15 16 15 11 10 7 8 8 9
22 20 18 18 18 19 19 18 16 15 16 15 16 16 16 15 14 16 16 13 14 13 14 15 15 17 13 12 13 14 15 13 12 12 10 8 11 9 13 9 7 8 5
18 18 17 18 18 17 16 15 15 16 15 14 14 13 15 15 14 17 19 14 13 13 13 12 12 21 22 20 15 14 14 9 11 10 10 10 5 8 5 7 8 4 4
15 17 17 17 16 15 16 14 14 13 13 13 13 12 13 13 13 15 19 21 15 14 13 12 12 12 20 21 16 15 12 10 12 12 11 10 8 8 8 5 3 1 1
14 14 15 16 16 14 16 15 14 13 14 14 13 14 13 13 13 18 20 21 20 13 13 8 7 2 7 5 9 7 11 9 10 11 10 8 8 9 5 7 4 5 4
13 13 14 15 15 15 14 14 14 14 14 13 13 13 12 12 12 12 13 12 16 13 15 14 12 8 7 7 4 9 9 10 11 9 8 9 9 4 6 7 4 5 3
11 14 14 14 15 15 13 14 14 14 11 14 12 12 12 12 12 13 10 12 12 14 11 11 12 12 12 12 11 11 8 7 9 10 9 8 8 3 5 5 4 4 6
6 8 12 13 14 14 14 9 8 10 11 8 7 4 1 13 11 7 12 14 9 12 11 11 12 12 12 11 7 7 10 10 10 9 8 6 6 6 7 6 6 8 8
12 8 9 12 14 14 13 13 12 3 2 6 8 6 5 4 11 10 8 11 8 10 8 10 10 11 8 6 9 9 10 9 10 7 7 7 6 7 7 8 7 7 8
11 12 10 6 8 13 13 13 11 13 11 11 9 11 6 10 6 3 2 2 6 5 10 11 11 7 5 9 11 11 13 8 7 8 9 8 7 7 7 7 8 9 9
6 8 11 9 8 6 4 8 7 6 9 10 7 5 10 13 10 9 6 8 12 13 11 12 11 11 11 13 12 11 9 6 6 7 8 8 8 8 8 7 8 9 9
9 10 9 7 6 5 3 6 5 7 7 8 6 2 9 7 6 8 8 10 12 14 13 12 11 10 11 10 8 7 5 4 6 8 7 7 6 6 6 8 10 9 9
4 6 11 6 5 5 0 5 7 4 4 2 3 6 9 3 6 5 10 10 11 12 13 12 10 10 4 4 7 8 5 8 9 8 9 7 8 8 9 10 10 9 10
4 4 3 3 6 7 6 6 5 4 3 3 5 6 8 3 5 7 10 10 9 10 9 9 9 10 5 5 6 7 7 10 9 9 9 8 8 9 9 8 8 10 11
9 9 8 4 3 6 5 12 5 6 7 7 10 10 7 6 8 9 8 9 8 7 8 4 5 8 8 6 5 5 7 8 6 7 8 8 9 8 7 7 10 10 9
11 13 11 9 8 8 7 11 7 4 6 6 7 7 8 8 5 6 7 7 8 9 7 4 6 8 8 6 5 7 7 4 7 9 12 10 10 9 9 7 10 12 7
10 8 7 8 10 10 11 11 12 13 13 13 13 13 13 11 10 10 9 9 9 10 12 11 12 16 17 18 17 15 13 10 8 9 5 10 10 9 12 8 8 7 9
12 12 11 10 10 10 10 11 11 11 11 10 10 9 9 9 9 10 10 11 10 11 13 11 14 19 20 15 17 17 11 10 9 8 6 6 7 8 8 7 10 8 11
Wind_Direction
198 196 197 193 196 201 214 199 211 223 224 206 223 205 216 213 208 206 240 250 192 209 256 267 209 245 274 277 246 238 254 259 267 274 287 306 306 265 263 261 270 277 282
200 198 198 196 197 199 203 210 199 207 208 220 211 214 213 216 210 207 219 226 221 227 222 234 242 235 216 245 273 283 284 296 289 288 292 289 269 270 269 258 258 275 274
200 200 198 202 200 201 197 203 201 199 203 211 212 215 210 213 214 212 219 225 232 216 224 225 232 235 241 262 266 270 256 234 236 249 271 285 295 293 277 258 251 263 269
197 205 201 199 201 201 198 198 203 200 199 206 209 212 213 212 213 220 216 224 228 227 229 236 237 238 238 238 242 250 257 267 275 272 268 267 271 273 265 274 296 317 299
198 200 201 199 200 200 201 200 199 203 201 205 207 210 212 215 215 213 222 218 218 229 239 234 234 243 253 253 256 247 252 248 258 265 276 290 296 312 328 314 295 309 316
196 200 199 195 196 201 201 200 200 199 203 203 210 211 213 219 211 199 206 221 225 224 228 232 242 248 239 234 235 247 260 274 277 281 283 286 294 293 311 310 312 301 311
205 196 197 193 197 201 198 197 198 199 199 206 209 212 216 220 210 196 199 220 225 223 228 232 237 243 223 237 223 230 240 238 235 256 268 271 285 290 301 293 290 309 300
203 197 196 194 198 197 199 201 197 197 202 204 210 211 216 220 204 194 195 218 228 240 242 233 232 245 254 259 254 248 240 237 228 229 238 250 255 251 250 287 304 298 287
208 206 196 196 194 198 200 198 198 201 205 210 211 212 215 222 198 192 184 220 229 235 238 238 243 249 247 222 240 253 260 264 268 248 251 255 257 257 261 285 278 272 286
207 203 197 198 197 201 201 199 197 200 208 213 214 213 214 220 199 198 193 224 228 230 229 234 231 242 242 221 234 249 255 257 263 271 272 250 246 245 236 224 239 258 294
199 200 199 198 200 202 201 202 200 201 208 212 219 215 218 216 219 190 193 218 232 228 237 240 233 210 221 228 213 241 249 264 269 274 267 260 263 274 245 187 217 264 281
192 195 197 195 200 194 199 198 201 201 207 209 213 221 219 221 215 189 194 211 224 237 246 246 240 221 207 216 216 231 236 252 261 262 264 269 271 263 267 258 136 187 78
189 193 196 194 196 203 191 194 196 199 211 212 210 219 227 217 217 203 194 202 222 236 242 245 69 129 183 220 231 230 214 230 243 249 254 258 253 259 136 125 150 117 96
192 199 196 194 197 207 187 193 203 202 205 218 214 220 223 225 227 212 202 204 223 217 240 256 267 294 287 275 230 209 221 236 240 244 244 245 250 189 192 159 167 182 182
204 206 198 197 193 197 206 197 202 211 207 206 219 213 223 224 226 221 205 190 209 213 221 229 233 235 242 243 240 243 241 233 227 241 246 234 245 216 185 173 164 193 204
224 211 198 204 184 201 202 171 61 124 126 100 68 12 313 24 50 79 109 110 98 168 195 228 228 232 237 236 241 249 255 239 242 238 249 248 228 214 189 191 192 227 231
351 344 208 221 180 203 191 196 183 155 120 134 136 142 112 70 47 19 60 98 109 139 226 226 234 241 223 229 239 227 232 239 255 251 240 230 208 205 186 197 203 217 224
354 334 343 230 189 196 195 189 193 170 178 185 217 216 184 127 125 108 112 266 238 225 246 240 246 235 227 235 250 234 229 226 198 222 232 224 209 201 187 208 205 217 218
350 355 341 353 7 342 100 167 164 176 197 177 162 212 170 112 114 116 145 250 259 255 231 226 237 242 226 226 231 241 256 242 221 219 223 217 200 201 202 210 221 223 217
349 314 312 311 332 322 183 214 234 229 198 205 225 187 150 141 172 198 204 228 237 248 253 253 248 236 232 232 257 290 262 218 216 234 228 208 195 201 202 214 226 217 218
258 263 241 262 258 261 157 309 270 238 204 137 323 105 84 194 198 213 208 207 227 244 252 252 259 261 272 210 216 225 214 236 239 231 223 200 196 207 225 225 217 205 216
308 322 288 347 343 286 33 289 307 289 232 206 254 96 145 293 301 295 286 282 215 215 242 251 251 255 247 196 198 223 217 232 239 236 225 213 205 218 230 232 226 201 212
9 8 344 319 302 19 256 258 252 245 249 235 200 187 186 215 228 240 258 269 284 268 274 245 266 269 247 242 228 220 228 216 214 205 217 216 220 224 233 231 235 239 225
22 11 355 342 15 329 342 320 313 293 275 278 326 315 2 2 10 45 10 353 329 325 308 326 297 289 266 263 253 234 244 270 237 226 224 230 234 225 250 243 222 236 213
53 42 23 13 28 4 1 16 17 9 17 25 18 12 7 8 14 12 7 6 10 13 35 23 18 13 24 30 19 3 0 344 345 328 282 243 241 249 256 251 216 219 237
42 45 43 39 32 25 30 33 32 26 26 25 27 24 18 18 16 15 18 18 18 27 21 21 19 15 8 16 9 356 340 338 345 351 322 258 233 241 236 231 227 224 226